Cloud_Cover
100 100 100 87 94 100 21 18 79 100 100 100 100 100 100 100 100 100 100 100 95 4 1 0 0 0 0 0 0 0 0 0 0 0 0 0 0 0 0 0 0 0 0 0 0
82 100 100 96 16 87 100 100 100 100 100 99 99 100 100 100 99 100 84 100 100 76 1 0 0 0 0 0 0 0 0 0 0 0 0 0 0 0 0 0 2 0 0 0 0
17 100 99 99 100 69 95 95 100 100 100 100 100 100 100 100 100 100 100 100 100 100 44 2 6 0 0 1 0 0 0 0 0 0 0 0 0 0 0 0 0 0 0 0 0
57 48 84 100 100 100 99 98 100 100 100 95 100 100 100 100 100 100 100 99 100 93 77 31 39 0 0 5 4 0 0 0 0 0 0 0 0 0 0 0 0 0 0 0 0
84 98 99 100 96 100 98 100 100 100 100 100 100 100 100 100 100 100 100 100 96 75 100 28 18 1 5 5 4 0 0 0 0 0 0 0 0 0 0 0 0 0 0 0 0
93 100 97 80 86 99 95 100 94 100 100 100 100 100 100 100 100 100 100 100 100 100 5 46 100 90 8 26 5 0 0 0 0 0 0 0 0 0 0 0 0 0 0 0 0
89 100 73 100 97 93 74 100 100 100 100 100 100 100 100 100 100 100 100 100 100 100 100 71 76 100 89 9 5 1 0 0 0 0 0 0 0 0 0 0 0 0 0 0 0
100 100 100 100 100 100 100 100 100 100 100 100 100 100 100 100 100 100 100 100 100 100 100 80 84 100 100 11 4 0 0 0 0 0 0 0 0 0 0 0 0 0 0 0 0
100 100 100 100 99 98 93 100 99 100 100 100 100 100 100 100 100 100 100 100 100 100 100 95 100 82 100 74 5 0 0 0 0 0 0 0 0 0 0 0 0 0 0 0 0
100 100 97 100 89 89 59 100 100 100 100 100 100 100 100 100 100 100 100 100 100 100 100 100 100 58 100 91 5 0 0 0 0 0 0 0 0 0 0 0 0 0 0 0 0
100 100 100 100 5 86 26 92 56 98 90 79 100 100 100 100 100 100 100 100 100 100 100 100 100 100 100 100 100 5 0 0 0 0 0 1 0 0 0 0 0 0 0 0 0
100 100 100 100 100 100 100 26 84 97 78 68 95 92 100 100 100 100 100 84 100 100 100 100 100 100 100 100 100 5 0 0 0 0 2 4 4 0 0 0 0 0 0 0 0
100 100 91 100 43 100 100 100 15 95 100 87 54 19 93 100 100 100 84 98 100 100 100 100 100 100 100 100 97 4 0 0 0 0 5 5 15 4 0 0 0 0 0 0 0
25 36 43 24 5 5 21 6 5 49 85 97 86 40 70 79 100 100 93 74 95 100 100 100 100 100 100 100 88 1 0 0 0 4 5 5 58 47 0 0 0 0 0 0 0
93 98 98 96 99 68 40 90 5 59 93 86 100 96 100 100 80 94 100 71 99 100 100 100 100 100 100 100 91 5 0 0 5 5 5 5 100 100 0 0 0 0 0 0 0
89 22 64 96 50 100 97 93 5 79 30 83 100 68 81 99 90 88 100 100 100 100 100 100 100 100 100 100 100 6 5 2 19 30 28 5 100 100 0 0 0 0 0 0 0
100 100 85 60 80 91 100 98 93 100 39 12 100 100 46 90 100 65 99 100 100 100 100 100 100 100 100 100 100 66 16 98 64 100 40 19 100 100 0 0 0 0 0 0 0
100 100 100 100 100 75 97 100 100 100 100 96 92 93 75 92 100 85 91 100 100 100 100 100 98 100 100 100 100 98 82 62 64 100 99 77 100 83 0 3 0 0 0 0 0
100 100 100 100 100 100 95 100 100 100 100 100 100 65 99 75 97 100 100 100 100 100 100 100 100 100 100 100 100 100 8 10 82 100 60 84 100 18 0 0 0 0 0 0 0
100 100 100 100 97 100 100 100 100 100 100 100 100 98 100 48 92 100 100 100 97 100 100 100 100 100 100 100 100 99 33 23 100 86 10 88 100 5 4 0 2 0 0 0 0
100 100 100 100 86 100 100 100 100 100 100 100 100 100 99 86 87 98 100 100 100 100 100 100 100 100 100 100 100 100 91 94 100 59 6 100 93 5 2 3 2 0 0 0 0
100 100 100 100 100 100 100 100 100 100 100 100 100 100 100 93 100 57 99 100 100 100 100 100 100 100 100 100 100 100 100 94 100 14 5 98 40 5 2 5 0 0 0 0 0
100 100 100 100 100 92 100 100 100 100 100 100 100 100 100 100 97 100 100 100 100 100 100 100 100 100 100 100 100 100 100 100 100 97 26 91 14 5 5 97 2 2 0 0 0
100 100 96 100 100 100 100 100 100 100 100 100 100 100 100 100 100 98 100 100 100 100 100 100 100 100 100 100 100 100 98 88 100 71 65 44 56 5 6 100 56 36 4 4 0
100 100 100 98 94 100 100 100 100 100 100 100 100 100 100 100 100 100 100 100 100 100 100 100 100 99 100 100 100 100 100 100 100 21 100 49 58 5 31 100 97 100 42 7 8
100 100 100 100 89 75 98 100 100 100 100 100 100 100 100 100 100 100 100 100 100 100 100 100 100 100 100 100 100 100 100 100 100 83 100 100 5 5 7 87 46 100 74 18 5
100 100 100 100 99 97 7 100 100 100 100 100 100 100 100 100 100 100 100 100 100 100 100 100 100 100 100 100 96 100 100 100 100 100 99 100 16 8 5 69 100 100 100 34 6